NOAA 16 DEB, 41399

Orbit data source: Space-Track

NOAA 16 DEB, 41399 is space debris in SSO originally from a launch on Thu, 21 Sep 2000 UTC launched from the Air Force Western Test Range (AFWTR). Debris objects in space refer to the collection of defunct objects orbiting the Earth. Examples of debris include non-operational satellites, rocket bodies, and fragments generated from explosions, collisions, or faulty payload assembly.

Loading next visibility...
Identifier
41399, 2000-055KC
Orbit
SSO
Country
Flag of USUS
Related business
Manufacturer
Unknown
Mission
Spacecraft
Bus & Motor
Unknown
Mass
Unknown
Launch date (UTC)
2000-09-21 (26 years ago)
Launch vehicle
Unknown
Launch site
Air Force Western Test Range (AFWTR)
Object type
Payload
Rocket body
Debris
Shape & HBR
Unknown shape, 0.1 m
Radar Cross Section
Medium (>0.1 m² and <1 m²)

Expand to show TLE details & history
Last TLE update: 14 hours ago

TLE from 14 hours ago
0 NOAA 16 DEB
1 41399U 00055KC  26237.33343853  .00002022  00000-0  99251-3 0  9993
2 41399  98.7387 274.2158 0039065  21.8044 338.4784 14.18457984543719
Epoch: 2026-08-25T08:00Z
TLE epoch observation values (Epoch: 2026-08-25T08:00:09.088Z)
Latitude
0.00003°
Longitude
-179.42437°
Altitude
807.296 km
Speed
7.463 km/s
True Right ascension
18h 16m 51s
True Declination
0° 00' 00"
Sunlit
Object was in full shadow at epoch
Visualization orbit readout
Latitude
Unknown
Longitude
Unknown
Altitude
Unknown
Speed
Unknown
Apparent Right ascension
Unknown
Apparent Declination
Unknown
Sunlit
N/A
Visualization observer readout
Local Sidereal Time
13:05:25
Azimuth
Unknown
Elevation
Unknown
Doppler factor
Unknown
Orbital elements
Apogee altitude
855.884 km
Perigee altitude
799.585 km
Semi-major axis
7,205.871 km
Eccentricity
0.00391
Inclination
98.7387°
RAAN
274.2158°
Arg. of periapsis
21.8044°
True anomaly
338.31343°
Mean anomaly
338.4784°
Eccentric anomaly
338.39599°
Mean motion
3.54824 °/min
Orbital period
101.46 mins
BSTAR
0.00099251
Loading maneuver chart data...
Computing Atmospheric mass density...

Documentation

Showing up to 5 results
|